Showing default

FALCONSAT-10, 58291

Orbit data source: Space-Track

FALCONSAT-10, 58291 is a payload satellite owned by USAF Academy (US) in SSO that was launched on Sat, 11 Nov 2023 UTC via an FALCON 9 launch vehicle from the Air Force Western Test Range (AFWTR). Payload-class satellites include a variety of spacecraft equipped with specific instruments for various scientific and technological missions. These include communications satellites like Starlink; space stations such as the ISS; scientific satellites like the Hubble; Earth observation satellites from companies like Planet Labs, Umbra, and HawkEye 360; GPS; miniature CubeSats for education and research; and military/defense satellites.

Loading next visibility...
Identifier
58291, 2023-174AM
Orbit
SSO
Country
Flag of USUS
Related business
Manufacturer
USAF Academy
Mission
Operational Defense Technology
Bus & Motor
FALCONSAT, Unknown motor
Mass
140 kg wet, 140 kg dry
Launch date (UTC)
2023-11-11 (3 years ago)
Launch vehicle
FALCON 9
Launch site
Air Force Western Test Range (AFWTR)
Object type
Payload
Rocket body
Debris
Shape & HBR
Box, 0.5 m
Radar Cross Section
0.780 m², Medium (>0.1 m² and < 1m²)

Expand to show TLE details & history
Last TLE update: 9 hours ago

TLE from 9 hours ago
0 FALCONSAT-10
1 58291U 23174AM  26222.71760691  .00002571  00000-0  96416-4 0  9998
2 58291  97.3778 298.2236 0008200   7.0390 353.0963 15.28126714153093
Epoch: 2026-08-10T17:13Z
TLE epoch observation values (Epoch: 2026-08-10T17:13:21.237Z)
Latitude
-0.00002°
Longitude
80.68888°
Altitude
478.929 km
Speed
7.629 km/s
True Right ascension
19h 52m 53s
True Declination
0° 00' 00"
Sunlit
Object was in full shadow at epoch
Visualization orbit readout
Latitude
Unknown
Longitude
Unknown
Altitude
Unknown
Speed
Unknown
Apparent Right ascension
Unknown
Apparent Declination
Unknown
Sunlit
N/A
Visualization observer readout
Local Sidereal Time
16:38:00
Azimuth
Unknown
Elevation
Unknown
Doppler factor
Unknown
Orbital elements
Apogee altitude
483.989 km
Perigee altitude
472.744 km
Semi-major axis
6,856.503 km
Eccentricity
0.00082
Inclination
97.3778°
RAAN
298.2236°
Arg. of periapsis
7.039°
True anomaly
353.08499°
Mean anomaly
353.0963°
Eccentric anomaly
353.09065°
Mean motion
3.82287 °/min
Orbital period
94.17 mins
BSTAR
0.000096416
Loading maneuver chart data...
Computing Atmospheric mass density...

Documentation

Showing up to 5 results
|